AirNav   Pilot Hours Calculator
 
 867 users online  

53T Cannon Field Airport
Somerset, Texas, USA

GOING TO SOMERSET?


FAA INFORMATION EFFECTIVE 07 NOVEMBER 2019

Location

FAA Identifier: 53T
Lat/Long: 29-12-57.8640N 098-32-58.0630W
29-12.964400N 098-32.967717W
29.2160733,-98.5494619
(estimated)
Elevation: 610 ft. / 186 m (estimated)
Variation: 07E (1985)
From city: 6 miles E of SOMERSET, TX
Time zone: UTC -6 (UTC -5 during Daylight Saving Time)
Zip code: 78264

Airport Operations

Airport use: Open to the public
Activation date: 09/1983
Control tower: no
ARTCC: HOUSTON CENTER
FSS: SAN ANGELO FLIGHT SERVICE STATION
NOTAMs facility: SJT (NOTAM-D service available)
Attendance: CONTINUOUS
FOR ARPT ATTENDANT CALL 210-842-0429.
Wind indicator: yes
Segmented circle: no

Airport Communications

CTAF/UNICOM: 123.0
WX ASOS at SSF (8 nm NE): PHONE 210-927-9391
WX AWOS-3 at PEZ (16 nm S): 118.575 (830-569-5749)
WX AWOS-3 at CVB (18 nm NW): 119.25 (830-931-0232)
WX ASOS at SAT (20 nm N): PHONE 210-805-5583

Nearby radio navigation aids

VOR radial/distance  VOR name  Freq  Var
SSFr236/(6.1)STINSON VOR108.4009E
RNDr212/22.8RANDOLPH VORTAC112.3005E
SATr182/26.1SAN ANTONIO VORTAC116.8008E

 
NDB name  Hdg/Dist  Freq  Var  ID
DEVINE070/20.935907EHHH .... .... ....
HONDO098/33.932908EHMA .... -- .-

Airport Services

Parking: hangars and tiedowns
Airframe service: MINOR
Powerplant service: MINOR

Runway Information

Runway 16/34

Dimensions: 2880 x 100 ft. / 878 x 30 m
ROLLING GRADIENT ENTIRE LENGTH OF RY NOT VISIBLE FM ENDS.
Surface: turf, in good condition
RY OCCASIONALLY ROUGH AND MAY FLOOD.
RUNWAY 16  RUNWAY 34
Traffic pattern: leftright
Displaced threshold: 200 ft.300 ft.
Obstructions: 4 ft. fence, 105 ft. right of centerline
RY 16 0:1 AT DSPLCD THR DUE TO 4 FT FENCE APPROX 105 FT R OF CNTRLN
49 ft. tree, 100 ft. left of centerline
RY 34 0:1 AT DSPLCD THR DUE TO +4 FT FENCE 51 FT R OF CNTRLN

Airport Ownership and Management from official FAA records

Ownership: Privately-owned
Owner: ALAMO LIAISON GROUP
2352 S LOOP 1604 W
SAN ANTONIO, TX 78264-3719
Phone 210-624-2226
Manager: RICHARD ROBERTS
2352 S LOOP 1604 W
SAN ANTONIO, TX 78264-3719
Phone 210-624-2226

Airport Operational Statistics

Aircraft based on the field: 13
Single engine airplanes: 13
    
Aircraft operations: avg 21/week *
91% local general aviation
9% transient general aviation
* for 12-month period ending 01 February 2017

Additional Remarks

WILD ANIMALS & MOWING EQUIP ON & INVOF ARPT.
+30 FT MARKED POWERLINE 500 FT ACROSS RY CNTRLN.
RYS 16 & 34 DISPLACED THLDS MARKED WITH WHITE PAINTED BARRELS.
RY 16/34 SOUTH HALF ROUGH EDGES.
RY 16 +4 FT FENCE 105 FT R PARALLEL TO RY; +6-10 FT TREES IN FENCE ROW 105 FT R OF CNTRLN.
RY 34 +4 FT FENCE 51 FT RIGHT PARALLEL TO RY.
FOR CD CTC SAN ANTONIO APCH AT 210-805-5516.

Instrument Procedures

There are no published instrument procedures at 53T.

Some nearby airports with instrument procedures:

KSSF - Stinson Municipal Airport (8 nm NE)
KSKF - Kelly Field Airport (10 nm N)
KPEZ - Pleasanton Municipal Airport (16 nm S)
KCVB - Castroville Municipal Airport (18 nm NW)
KSAT - San Antonio International Airport (20 nm N)
 
Loc | Ops | Rwys | IFR | FBO | Links
Com | Nav | Svcs | Stats | Notes
Area around 53T (Cannon Field Airport)
 
Road maps at: MapQuest Bing Google
 
Aerial photo
WARNING: Photo may not be current or correct
Aerial photo of 53T (Cannon Field Airport)
Photo taken 11-Jun-2010

Do you have a better or more recent aerial photo of Cannon Field Airport that you would like to share? If so, please send us your photo.

 
Sectional chart

 
Airport distance calculator
Flying to Cannon Field Airport? Find the distance to fly.

From to 53T

Sunrise and sunset
Times for 13-Nov-2019
 Local
(UTC-6)
 Zulu
(UTC)
Morning civil twilight06:3212:32
Sunrise06:5712:57
Sunset17:4023:40
Evening civil twilight18:0500:05

Current date and time
Zulu (UTC)  14-Nov-2019 00:53:17
Local (UTC-6)  13-Nov-2019 18:53:17
 
METAR
KSSF 
8nm NE 
132353Z 14004KT 10SM BKN080 OVC110 06/M03 A3011 RMK AO2 SLP204 60000 T00561028 10061 20028 58012
KSKF 
9nm N 
132356Z 15005KT 10SM SCT110 OVC130 06/M03 A3010 RMK AO2A SLP197 60000 T00591030 10059 20036 57009
KPEZ 
16nm S 
140035Z AUTO 16003KT 10SM SCT038 OVC050 06/M05 A3016 RMK AO2 T00561048
KCVB 
17nm NW 
140035Z AUTO 18003KT 10SM OVC060 06/M02 A3015 RMK AO2 T00581024
KSAT 
20nm N 
132351Z 15006KT 10SM SCT030 OVC110 06/M02 A3011 RMK AO2 SLP193 60000 T00561022 10056 20033 56015
TAF
KSSF 
8nm NE 
131734Z 1318/1418 22005KT P6SM OVC070 FM140100 16003KT P6SM OVC025 FM140600 VRB03KT P6SM VCSH OVC015 FM141200 01005KT 5SM -SHRA SCT005 OVC009 FM141700 36010KT 6SM -SHRA OVC014
KSKF 
9nm N 
131800Z 1318/1424 19006KT 9999 -RA BKN030 OVC090 620302 QNH3012INS BECMG 1404/1405 VRB06KT 9999 NSW BKN025 QNH3011INS BECMG 1411/1412 01007KT 9000 -SHRA BKN015 QNH3013INS BECMG 1418/1419 01010KT 9999 NSW BKN030 QNH3025INS BECMG 1419/1420 02010G15KT 9999 OVC013 QNH3023INS TX07/1415Z TN03/1412Z
KSAT 
20nm N 
131734Z 1318/1424 21007KT P6SM OVC060 FM140000 17003KT P6SM OVC025 FM140600 VRB03KT P6SM VCSH OVC015 FM141200 01005KT 5SM -SHRA SCT005 OVC008 FM141700 36010KT 6SM -SHRA OVC012
NOTAMs
Click for the latest NOTAMs
NOTAMs are issued by the DoD/FAA and will open in a separate window not controlled by AirNav.

 

 
 

Would you like to see your business listed on this page?

 If your business provides an interesting product or service to pilots, flight crews, aircraft, or users of the Cannon Field Airport, you should consider listing it here.  To start the listing process, click on the button below
 
Add a business
 

Other Pages about Cannon Field Airport

Update a link
 
Copyright © AirNav, LLC. All rights reserved. Privacy Policy  Contact